DW5920 Weather Reports


time (UTC)temp
C
wind
direction
speed
KPH
gust
KPH
rain 1hr
cm
rain 24hr
cm
rain mn
cm
humidity
%
barometer
mb
20260505040903 12 82 0.0 3.2 0.00 0.00 0.00 72 1013.6
20260505040004 12 0 0.0 0.0 0.00 0.00 0.00 71 1013.6
20260505035403 12 0 0.0 0.0 0.00 0.00 0.00 71 1013.6
20260505034503 12 0 0.0 0.0 0.00 0.00 0.00 72 1013.6
20260505033603 13 0 0.0 0.0 0.00 0.00 0.00 72 1013.7
20260505032703 12 338 0.0 1.6 0.00 0.00 0.00 72 1013.7
20260505031803 13 0 0.0 0.0 0.00 0.00 0.00 72 1013.6
20260505030903 13 0 0.0 0.0 0.00 0.00 0.00 73 1013.7
20260505030003 13 5 0.0 1.6 0.00 0.00 0.00 72 1013.6
20260505025403 13 355 0.0 1.6 0.00 0.00 0.00 72 1013.6
20260505024503 12 0 0.0 0.0 0.00 0.00 0.00 75 1013.6
20260505023603 12 0 0.0 0.0 0.00 0.00 0.00 76 1013.6
20260505022703 13 0 0.0 1.6 0.00 0.00 0.00 74 1013.6
20260505021803 13 332 0.0 1.6 0.00 0.00 0.00 73 1013.6
20260505020903 13 332 0.0 1.6 0.00 0.00 0.00 72 1013.6
20260505020003 13 0 0.0 0.0 0.00 0.00 0.00 71 1013.7
20260505015403 13 344 0.0 1.6 0.00 0.00 0.00 71 1013.7
20260505014503 13 0 0.0 0.0 0.00 0.00 0.00 73 1013.6
20260505013603 13 0 0.0 0.0 0.00 0.00 0.00 77 1013.7
20260505012703 13 0 0.0 0.0 0.00 0.00 0.00 76 1013.8
20260505012020 13 0 0.0 0.0 0.00 0.00 0.00 76 1013.8
20260505010903 13 0 0.0 0.0 0.00 0.00 0.00 75 1013.9
20260505010219 13 0 0.0 0.0 0.00 0.00 0.00 72 1014.0
20260505005403 14 0 0.0 0.0 0.00 0.00 0.00 72 1014.1
20260505004503 14 0 0.0 0.0 0.00 0.00 0.00 71 1014.1
20260505003603 13 0 0.0 0.0 0.00 0.00 0.00 74 1014.1
20260505002703 13 0 0.0 0.0 0.00 0.00 0.00 74 1014.0
20260505002020 13 0 0.0 0.0 0.00 0.00 0.00 75 1014.2
20260505000903 13 0 0.0 0.0 0.00 0.00 0.00 74 1014.2
20260505000003 15 0 0.0 0.0 0.00 0.00 0.00 69 1014.1
20260504235403 15 0 0.0 0.0 0.00 0.00 0.00 68 1014.1
20260504234503 15 0 0.0 0.0 0.00 0.00 0.00 67 1014.1
20260504233603 15 0 0.0 0.0 0.00 0.00 0.00 67 1014.0
20260504232703 14 0 0.0 0.0 0.00 0.00 0.00 68 1014.0
20260504232021 14 0 0.0 0.0 0.00 0.00 0.00 73 1014.1
20260504230903 15 0 0.0 0.0 0.00 0.00 0.00 71 1014.1
20260504230221 15 0 0.0 0.0 0.00 0.00 0.00 70 1014.1
20260504225403 15 0 0.0 0.0 0.00 0.00 0.00 70 1014.0
20260504224503 15 0 0.0 0.0 0.00 0.00 0.00 70 1014.0
20260504223603 15 0 0.0 0.0 0.00 0.00 0.00 69 1014.0
20260504222919 16 0 0.0 0.0 0.00 0.00 0.00 69 1013.8
20260504221803 16 0 0.0 0.0 0.00 0.00 0.00 69 1013.9
20260504220903 15 0 0.0 0.0 0.00 0.00 0.00 71 1013.9
20260504220004 15 66 0.0 6.4 0.00 0.00 0.00 70 1013.9
20260504215403 16 0 0.0 0.0 0.00 0.00 0.00 67 1013.8
20260504214503 16 294 0.0 3.2 0.00 0.00 0.00 67 1013.8
20260504213603 16 288 0.0 6.4 0.00 0.00 0.00 67 1013.8
20260504212703 16 284 0.0 4.8 0.00 0.00 0.00 67 1013.8
20260504211803 17 290 0.0 3.2 0.00 0.00 0.00 66 1013.7
20260504211119 17 266 0.0 1.6 0.00 0.00 0.00 66 1013.7
20260504210003 17 277 0.0 8.0 0.00 0.00 0.00 64 1013.7
20260504205403 17 278 0.0 8.0 0.00 0.00 0.00 64 1013.6
20260504204503 17 277 1.6 9.7 0.00 0.00 0.00 63 1013.5
20260504203603 17 274 1.6 9.7 0.00 0.00 0.00 63 1013.4
20260504202703 18 284 1.6 9.7 0.00 0.00 0.00 62 1013.4
20260504201803 18 281 1.6 11.3 0.00 0.00 0.00 61 1013.2
20260504200903 18 277 3.2 12.9 0.00 0.00 0.00 60 1013.1
20260504200217 18 272 3.2 14.5 0.00 0.00 0.00 60 1013.0
20260504195403 18 278 1.6 14.5 0.00 0.00 0.00 59 1012.9
20260504194503 19 277 3.2 11.3 0.00 0.00 0.00 59 1012.7
20260504193603 19 280 4.8 17.7 0.00 0.00 0.00 58 1012.6
20260504192703 20 276 3.2 14.5 0.00 0.00 0.00 57 1012.5
20260504191803 20 272 4.8 19.3 0.00 0.00 0.00 56 1012.5
20260504190903 20 265 4.8 17.7 0.00 0.00 0.00 55 1012.3
20260504190003 20 274 4.8 16.1 0.00 0.00 0.00 54 1012.2
20260504185620 21 268 6.4 20.9 0.00 0.00 0.00 53 1012.2
20260504184503 21 273 6.4 17.7 0.00 0.00 0.00 52 1012.0
20260504183603 22 275 4.8 19.3 0.00 0.00 0.00 51 1012.0
20260504182918 22 268 6.4 22.5 0.00 0.00 0.00 50 1011.8
20260504181803 22 269 6.4 25.7 0.00 0.00 0.00 48 1011.7
20260504180903 22 259 8.0 25.7 0.00 0.00 0.00 47 1011.7
20260504180219 23 255 9.7 24.1 0.00 0.00 0.00 49 1011.7
20260504175403 23 255 9.7 24.1 0.00 0.00 0.00 48 1011.6
20260504174503 23 259 8.0 20.9 0.00 0.00 0.00 46 1011.5
20260504173603 25 275 4.8 17.7 0.00 0.00 0.00 34 1011.5
20260504172703 25 284 4.8 16.1 0.00 0.00 0.00 31 1011.6
20260504171803 25 271 3.2 17.7 0.00 0.00 0.00 32 1011.6
20260504171117 25 272 3.2 12.9 0.00 0.00 0.00 32 1011.6
20260504150903 25 286 1.6 16.1 0.00 0.00 0.00 33 1011.9
20260504140903 24 275 0.0 14.5 0.00 0.00 0.00 34 1012.5
20260504130217 23 243 3.2 14.5 0.00 0.00 0.00 37 1013.0
20260504120217 22 240 3.2 11.3 0.00 0.00 0.00 41 1013.6
20260504081803 18 258 1.6 8.0 0.00 0.00 0.00 66 1014.1
20260504080903 18 187 0.0 6.4 0.00 0.00 0.00 68 1014.2
20260504080220 18 0 0.0 1.6 0.00 0.00 0.00 71 1014.1
20260504050003 13 247 0.0 1.6 0.00 0.00 0.00 90 1012.7